• In Netherlands
  • List of Countries
  • For 7 days
  • Water Temperature
  • Satellite Maps
  • Weather Map
  • Weather Widgets
  • user-avatar
    Login

    Hourly Weather Mayrhofen

    Today, 19 October, Thursday

    Time Temperature Precipitation Wind Pressure Humidity
    00:00 +3°C° 0 mm 2 mps 617 mmHg 58%
    01:00 +3°C° 0 mm 2 mps 617 mmHg 58%
    02:00 +3°C° 0 mm 2 mps 616 mmHg 57%
    03:00 +2°C° 0 mm 2 mps 616 mmHg 56%
    04:00 +2°C° 0 mm 2 mps 616 mmHg 56%
    05:00 +3°C° 0 mm 1 mps 616 mmHg 54%
    06:00 +3°C° 0 mm 1 mps 616 mmHg 53%
    07:00 +3°C° 0 mm 1 mps 616 mmHg 51%
    08:00 +6°C° 0 mm 1 mps 617 mmHg 45%
    09:00 +9°C° 0 mm 1 mps 618 mmHg 38%
    10:00 +12°C° 0 mm 1 mps 619 mmHg 32%
    11:00 +13°C° 0 mm 1 mps 620 mmHg 30%
    12:00 +14°C° 0 mm 1 mps 620 mmHg 29%
    13:00 +15°C° 0 mm 1 mps 620 mmHg 27%
    14:00 +14°C° 0 mm 1 mps 619 mmHg 33%
    15:00 +13°C° 0 mm 1 mps 619 mmHg 39%
    16:00 +12°C° 0 mm 1 mps 618 mmHg 45%
    17:00 +10°C° 0 mm 1 mps 618 mmHg 50%
    18:00 +8°C° 0 mm 1 mps 617 mmHg 56%
    19:00 +4°C° 0 mm 2 mps 616 mmHg 61%
    20:00 +4°C° 0 mm 2 mps 616 mmHg 62%
    21:00 +4°C° 0 mm 2 mps 617 mmHg 63%
    22:00 +4°C° 0 mm 2 mps 617 mmHg 64%
    23:00 +3°C° 0 mm 2 mps 617 mmHg 67%

    Tomorrow, 20 October, Friday

    Time Temperature Precipitation Wind Pressure Humidity
    00:00 +3°C° 0 mm 2 mps 617 mmHg 70%
    01:00 +3°C° 0 mm 2 mps 617 mmHg 73%
    02:00 +3°C° 0 mm 2 mps 617 mmHg 74%
    03:00 +3°C° 0 mm 2 mps 616 mmHg 75%
    04:00 +4°C° 0 mm 1 mps 616 mmHg 77%
    05:00 +4°C° 0 mm 1 mps 617 mmHg 77%
    06:00 +4°C° 0 mm 1 mps 617 mmHg 77%
    07:00 +4°C° 0 mm 1 mps 617 mmHg 77%
    08:00 +7°C° 0 mm 1 mps 618 mmHg 68%
    09:00 +8°C° 0 mm 0 mps 620 mmHg 58%
    10:00 +11°C° 0 mm 0 mps 621 mmHg 48%
    11:00 +12°C° 0 mm 0 mps 621 mmHg 46%
    12:00 +13°C° 0 mm 1 mps 621 mmHg 44%
    13:00 +14°C° 0 mm 1 mps 621 mmHg 43%
    14:00 +13°C° 0 mm 1 mps 621 mmHg 48%
    15:00 +13°C° 0 mm 1 mps 621 mmHg 53%
    16:00 +12°C° 0 mm 1 mps 621 mmHg 59%
    17:00 +9°C° 0 mm 1 mps 620 mmHg 67%
    18:00 +7°C° 0 mm 1 mps 619 mmHg 76%
    19:00 +5°C° 0 mm 1 mps 619 mmHg 85%
    20:00 +5°C° 0 mm 1 mps 619 mmHg 84%
    21:00 +5°C° 0 mm 1 mps 619 mmHg 83%
    22:00 +4°C° 0 mm 1 mps 619 mmHg 82%
    23:00 +5°C° 0 mm 1 mps 619 mmHg 80%

    Day after tomorrow, 21 October, Saturday

    Time Temperature Precipitation Wind Pressure Humidity
    00:00 +5°C° 0 mm 1 mps 619 mmHg 78%
    01:00 +5°C° 0 mm 1 mps 619 mmHg 76%
    02:00 +5°C° 0 mm 1 mps 619 mmHg 76%
    03:00 +5°C° 0 mm 1 mps 619 mmHg 75%
    04:00 +4°C° 0 mm 1 mps 619 mmHg 74%
    05:00 +5°C° 0 mm 1 mps 619 mmHg 73%
    06:00 +5°C° 0 mm 1 mps 619 mmHg 72%
    07:00 +5°C° 0 mm 1 mps 619 mmHg 71%
    08:00 +7°C° 0 mm 1 mps 620 mmHg 64%
    09:00 +9°C° 0 mm 0 mps 621 mmHg 56%
    10:00 +12°C° 0 mm 0 mps 622 mmHg 49%
    11:00 +12°C° 0 mm 0 mps 622 mmHg 47%
    12:00 +13°C° 0 mm 0 mps 622 mmHg 44%
    13:00 +15°C° 0 mm 1 mps 622 mmHg 42%
    14:00 +14°C° 0 mm 1 mps 621 mmHg 48%
    15:00 +13°C° 0 mm 1 mps 621 mmHg 54%
    16:00 +13°C° 0 mm 1 mps 620 mmHg 59%
    17:00 +10°C° 0 mm 1 mps 620 mmHg 68%
    18:00 +8°C° 0 mm 1 mps 619 mmHg 77%
    19:00 +5°C° 0 mm 0 mps 618 mmHg 85%
    20:00 +4°C° 0 mm 0 mps 618 mmHg 87%
    21:00 +4°C° 0 mm 0 mps 618 mmHg 89%
    22:00 +4°C° 0 mm 0 mps 618 mmHg 91%
    23:00 +4°C° 0.2 mm 0 mps 618 mmHg 92%

    22 October, Sunday

    Time Temperature Precipitation Wind Pressure Humidity
    00:00 +4°C° 0.2 mm 0 mps 618 mmHg 93%
    01:00 +5°C° 0.2 mm 1 mps 618 mmHg 94%
    02:00 +5°C° 0.7 mm 1 mps 618 mmHg 95%
    03:00 +5°C° 0.7 mm 1 mps 618 mmHg 96%
    04:00 +5°C° 0.7 mm 1 mps 618 mmHg 96%
    05:00 +4°C° 1.2 mm 1 mps 618 mmHg 96%
    06:00 +3°C° 1.2 mm 2 mps 617 mmHg 96%
    07:00 +3°C° 1.2 mm 2 mps 617 mmHg 96%
    08:00 +3°C° 2.2 mm 2 mps 617 mmHg 95%
    09:00 +3°C° 2.2 mm 2 mps 617 mmHg 95%
    10:00 +2°C° 2.2 mm 2 mps 617 mmHg 94%
    11:00 +1°C° 2 mm 3 mps 617 mmHg 93%
    12:00 +1°C° 2 mm 3 mps 616 mmHg 93%
    13:00 0°C° 2 mm 3 mps 616 mmHg 93%
    14:00 0°C° 0.8 mm 3 mps 616 mmHg 92%
    15:00 0°C° 0.8 mm 3 mps 616 mmHg 91%
    16:00 -1°C° 0.8 mm 3 mps 616 mmHg 90%
    17:00 -2°C° 0.1 mm 3 mps 616 mmHg 91%
    18:00 -2°C° 0.1 mm 3 mps 616 mmHg 92%
    19:00 -4°C° 0.1 mm 3 mps 616 mmHg 93%
    20:00 -5°C° 0.1 mm 3 mps 616 mmHg 93%
    21:00 -5°C° 0.1 mm 3 mps 616 mmHg 93%
    22:00 -4°C° 0.1 mm 2 mps 617 mmHg 93%
    23:00 -4°C° 0.2 mm 2 mps 617 mmHg 93%

    23 October, Monday

    Time Temperature Precipitation Wind Pressure Humidity
    00:00 -4°C° 0.2 mm 2 mps 617 mmHg 93%
    01:00 -4°C° 0.2 mm 2 mps 617 mmHg 92%
    02:00 -4°C° 0.3 mm 2 mps 617 mmHg 92%
    03:00 -4°C° 0.3 mm 2 mps 617 mmHg 92%
    04:00 -4°C° 0.3 mm 2 mps 617 mmHg 92%
    05:00 -4°C° 0.7 mm 2 mps 617 mmHg 92%
    06:00 -4°C° 0.7 mm 2 mps 617 mmHg 92%
    07:00 -3°C° 0.7 mm 2 mps 617 mmHg 92%
    08:00 -3°C° 0.8 mm 2 mps 618 mmHg 91%
    09:00 -2°C° 0.8 mm 2 mps 618 mmHg 90%
    10:00 -1°C° 0.8 mm 3 mps 619 mmHg 88%
    11:00 -1°C° 0.4 mm 3 mps 619 mmHg 88%
    12:00 0°C° 0.4 mm 3 mps 619 mmHg 88%
    13:00 0°C° 0.4 mm 3 mps 619 mmHg 87%
    14:00 0°C° 0.1 mm 3 mps 619 mmHg 87%
    15:00 0°C° 0.1 mm 3 mps 620 mmHg 87%
    16:00 +1°C° 0.1 mm 2 mps 620 mmHg 88%
    17:00 -1°C° 0.1 mm 2 mps 620 mmHg 89%
    18:00 -2°C° 0.1 mm 2 mps 620 mmHg 91%
    19:00 -3°C° 0.1 mm 2 mps 620 mmHg 93%
    20:00 -3°C° 0 mm 2 mps 620 mmHg 92%
    21:00 -3°C° 0 mm 2 mps 620 mmHg 91%
    22:00 -4°C° 0 mm 2 mps 621 mmHg 90%
    23:00 -4°C° 0 mm 2 mps 621 mmHg 89%

    24 October, Tuesday

    Time Temperature Precipitation Wind Pressure Humidity
    00:00 -4°C° 0 mm 2 mps 621 mmHg 88%
    01:00 -4°C° 0 mm 2 mps 620 mmHg 88%
    02:00 -4°C° 0 mm 2 mps 621 mmHg 87%
    03:00 -4°C° 0 mm 2 mps 621 mmHg 87%
    04:00 -3°C° 0 mm 2 mps 621 mmHg 87%
    05:00 -3°C° 0 mm 2 mps 621 mmHg 87%
    06:00 -3°C° 0 mm 2 mps 621 mmHg 87%
    07:00 -3°C° 0 mm 2 mps 621 mmHg 87%
    08:00 +2°C° 0 mm 1 mps 622 mmHg 87%
    09:00 +4°C° 0 mm 1 mps 623 mmHg 88%
    10:00 +6°C° 0 mm 1 mps 623 mmHg 88%
    11:00 +7°C° 0 mm 1 mps 624 mmHg 87%
    12:00 +8°C° 0 mm 1 mps 624 mmHg 86%
    13:00 +9°C° 0 mm 1 mps 624 mmHg 84%
    14:00 +8°C° 0 mm 1 mps 623 mmHg 86%
    15:00 +8°C° 0 mm 1 mps 623 mmHg 89%
    16:00 +7°C° 0 mm 1 mps 623 mmHg 91%
    17:00 +6°C° 0 mm 1 mps 623 mmHg 89%
    18:00 +5°C° 0 mm 1 mps 622 mmHg 88%
    19:00 +3°C° 0 mm 1 mps 622 mmHg 86%
    20:00 +3°C° 0 mm 1 mps 622 mmHg 84%
    21:00 +3°C° 0 mm 1 mps 622 mmHg 82%
    22:00 +3°C° 0 mm 1 mps 622 mmHg 80%
    23:00 +3°C° 0 mm 1 mps 622 mmHg 80%
    Show more